CW9688 Weather Reports


time (UTC)temp
C
wind
direction
speed
KPH
gust
KPH
rain 1hr
cm
rain 24hr
cm
rain mn
cm
humidity
%
barometer
mb
20260503220304 22 265 17.7 32.2 0.00 0.00 0.00 15 1010.4
20260503215804 22 242 16.1 33.8 0.00 0.00 0.00 16 1010.4
20260503213304 22 185 16.1 29.0 0.00 0.00 0.00 16 1010.4
20260503212804 22 243 8.0 16.1 0.00 0.00 0.00 15 1010.4
20260503212305 22 245 4.8 8.0 0.00 0.00 0.00 15 1010.4
20260503210804 22 328 9.7 20.9 0.00 0.00 0.00 15 1010.4
20260503205805 22 309 11.3 19.3 0.00 0.00 0.00 15 1010.4
20260503205305 22 297 11.3 29.0 0.00 0.00 0.00 15 1010.4
20260503204304 24 320 9.7 20.9 0.00 0.00 0.00 14 1010.4
20260503203804 24 349 14.5 25.7 0.00 0.00 0.00 15 1010.4
20260503203305 24 326 9.7 24.1 0.00 0.00 0.00 14 1010.4
20260503200805 24 308 11.3 24.1 0.00 0.00 0.00 15 1010.4
20260503195805 23 321 9.7 19.3 0.00 0.00 0.00 14 1010.4
20260503194805 23 295 8.0 22.5 0.00 0.00 0.00 14 1010.4
20260503194304 23 355 14.5 20.9 0.00 0.00 0.00 15 1010.4
20260503193804 23 352 11.3 19.3 0.00 0.00 0.00 15 1010.4
20260503192805 25 0 17.7 29.0 0.00 0.00 0.00 14 1010.4
20260503191805 25 310 20.9 32.2 0.00 0.00 0.00 14 1010.4
20260503191304 23 348 16.1 32.2 0.00 0.00 0.00 15 1010.4
20260503190805 24 343 17.7 29.0 0.00 0.00 0.00 14 1010.4
20260503190304 23 324 12.9 22.5 0.00 0.00 0.00 16 1010.4
20260503185305 25 266 16.1 24.1 0.00 0.00 0.00 13 1010.4
20260503184805 24 336 16.1 32.2 0.00 0.00 0.00 13 1010.4
20260503184305 25 311 16.1 32.2 0.00 0.00 0.00 14 1010.4
20260503183304 24 298 16.1 27.4 0.00 0.00 0.00 14 1010.4
20260503182804 24 304 11.3 24.1 0.00 0.00 0.00 13 1010.4
20260503182305 23 265 16.1 25.7 0.00 0.00 0.00 13 1010.4
20260503181305 23 269 8.0 24.1 0.00 0.00 0.00 14 1010.4
20260503180305 23 317 14.5 25.7 0.00 0.00 0.00 14 1010.4
20260503175804 23 300 12.9 22.5 0.00 0.00 0.00 16 1010.4
20260503172804 21 291 6.4 19.3 0.00 0.00 0.00 17 1010.4
20260503171805 21 261 11.3 20.9 0.00 0.00 0.00 17 1010.4
20260503150805 15 164 3.2 11.3 0.00 0.00 0.00 33 1010.3
20260503130804 9 168 0.0 4.8 0.00 0.00 0.00 47 1010.3
20260503090304 7 165 4.8 8.0 0.00 0.00 0.00 37 1010.3
20260503081304 7 215 1.6 1.6 0.00 0.00 0.00 36 1010.3
20260503080305 7 215 1.6 3.2 0.00 0.00 0.00 36 1010.3
20260503072306 7 167 1.6 3.2 0.00 0.00 0.00 41 1010.3
20260503071804 7 167 1.6 4.8 0.00 0.00 0.00 42 1010.3
20260503070304 7 238 0.0 3.2 0.00 0.00 0.00 43 1010.3
20260503060304 8 238 1.6 3.2 0.00 0.00 0.00 38 1010.3
20260503054304 9 238 0.0 1.6 0.00 0.00 0.00 36 1010.3
20260503053805 9 238 0.0 0.0 0.00 0.00 0.00 36 1010.3
20260503052305 9 238 1.6 3.2 0.00 0.00 0.00 34 1010.3
20260503051804 10 290 1.6 3.2 0.00 0.00 0.00 34 1010.3
20260503051304 10 290 1.6 1.6 0.00 0.00 0.00 33 1010.3
20260503050804 10 290 1.6 3.2 0.00 0.00 0.00 34 1010.3
20260503050304 10 290 1.6 4.8 0.00 0.00 0.00 32 1010.3
20260503044804 11 191 3.2 8.0 0.00 0.00 0.00 31 1010.3
20260503044305 11 176 1.6 4.8 0.00 0.00 0.00 31 1010.3
20260503043804 11 162 3.2 8.0 0.00 0.00 0.00 31 1010.3
20260503043304 11 162 1.6 3.2 0.00 0.00 0.00 29 1010.3
20260503042804 11 132 1.6 3.2 0.00 0.00 0.00 29 1010.3
20260503042305 11 132 0.0 0.0 0.00 0.00 0.00 28 1010.3
20260503040805 12 132 1.6 3.2 0.00 0.00 0.00 26 1010.3
20260503040304 12 131 3.2 8.0 0.00 0.00 0.00 25 1010.3
20260503035305 12 110 1.6 3.2 0.00 0.00 0.00 24 1010.3
20260503033305 12 80 1.6 3.2 0.00 0.00 0.00 24 1010.3
20260503032305 12 71 0.0 3.2 0.00 0.00 0.00 23 1010.3
20260503031805 12 71 0.0 1.6 0.00 0.00 0.00 24 1010.3
20260503031304 12 71 1.6 4.8 0.00 0.00 0.00 23 1010.3
20260503030805 12 58 0.0 0.0 0.00 0.00 0.00 22 1010.3
20260503030305 13 58 0.0 0.0 0.00 0.00 0.00 22 1010.3
20260503025804 13 58 0.0 0.0 0.00 0.00 0.00 21 1010.3
20260503025305 13 58 0.0 0.0 0.00 0.00 0.00 21 1010.3
20260503024805 13 58 0.0 0.0 0.00 0.00 0.00 20 1010.3
20260503024304 13 58 0.0 0.0 0.00 0.00 0.00 19 1010.3
20260503023805 14 58 0.0 0.0 0.00 0.00 0.00 19 1010.3
20260503022305 15 58 0.0 0.0 0.00 0.00 0.00 17 1010.3
20260503020805 16 58 0.0 1.6 0.00 0.00 0.00 14 1010.3
20260503015804 17 58 1.6 4.8 0.00 0.00 0.00 13 1010.3
20260503014804 18 58 1.6 4.8 0.00 0.00 0.00 11 1010.3
20260503013804 19 85 4.8 8.0 0.00 0.00 0.00 11 1010.3
20260503013304 19 72 4.8 8.0 0.00 0.00 0.00 11 1010.3
20260503012305 20 91 4.8 9.7 0.00 0.00 0.00 9 1010.3
20260503010804 20 149 6.4 14.5 0.00 0.00 0.00 9 1010.3
20260503010304 20 200 4.8 9.7 0.00 0.00 0.00 8 1010.3
20260503004804 20 57 9.7 16.1 0.00 0.00 0.00 8 1010.3
20260503003804 21 87 4.8 11.3 0.00 0.00 0.00 8 1016.9
20260503001804 21 87 12.9 20.9 0.00 0.00 0.00 8 1016.9
20260503001304 21 139 4.8 16.1 0.00 0.00 0.00 9 1016.9
20260502235305 21 99 4.8 11.3 0.00 0.00 0.00 8 1016.9
20260502234304 21 94 11.3 19.3 0.00 0.00 0.00 8 1016.9
20260502232804 22 114 9.7 19.3 0.00 0.00 0.00 8 1016.9
20260502232305 22 110 4.8 19.3 0.00 0.00 0.00 7 1016.9
20260502231305 22 103 9.7 19.3 0.00 0.00 0.00 7 1016.9
20260502230305 22 121 8.0 20.9 0.00 0.00 0.00 8 1016.9
20260502225304 22 124 9.7 19.3 0.00 0.00 0.00 8 1016.9
20260502224804 22 120 3.2 12.9 0.00 0.00 0.00 7 1016.9
20260502221805 22 156 8.0 20.9 0.00 0.00 0.00 7 1016.9
20260502220804 22 44 8.0 19.3 0.00 0.00 0.00 8 1016.9